Location: Newark
(49.8969°N, 3.3422°E)
Time: 20:14:45
(UTC+00:00)

A-11 Canister half - Pass Details

Date: 04 February 2020
Orbit: 1517 x 1683 km, 47.2° (Epoch: 19 February)

Event Time Altitude Azimuth Distance (km) Brightness Sun altitude
Rises 22:37:21 0° 256° (WSW) 4,777 11.8 -52.3°
Enters shadow 22:39:51 - 255° (WSW) 3,969 11.2 -52.5°
Reaches altitude 10° 22:40:28 10° 255° (WSW) 3,771 - -52.6°
Maximum altitude 22:49:57 75° 172° (S) 1,587 - -53.4°
Drops below altitude 10° 22:59:12 10° 90° (E) 3,684 - -54.1°
Sets 23:02:12 0° 89° (E) 4,662 - -54.3°
